This is the latest recevied weather packets stored in our database for station/object KC4JES. If no packets are shown the sender has not sent any weather packets the latest 10 day(s).
| Time | Temp. | Humidity | Pressure | Rain* | Wind** | Luminosity | Snow |
|---|---|---|---|---|---|---|---|
| 1778014884 | 26.67° C | 47% | 1016.4 hPa | 0 mm | - | 533 W/m² | - |
| 1778014581 | 26.67° C | 47% | 1016.6 hPa | 0 mm | - | 542 W/m² | - |
| 1778014279 | 27.22° C | 48% | 1016.6 hPa | 0 mm | - | 542 W/m² | - |
| 1778013976 | 27.22° C | 45% | 1016.6 hPa | 0 mm | - | 564 W/m² | - |
| 1778013674 | 27.22° C | 47% | 1016.8 hPa | 0 mm | - | 593 W/m² | - |
| 1778013370 | 26.67° C | 50% | 1016.9 hPa | 0 mm | - | 621 W/m² | - |
| 1778013067 | 26.67° C | 50% | 1016.9 hPa | 0 mm | - | 588 W/m² | - |
| 1778012762 | 27.22° C | 47% | 1016.9 hPa | 0 mm | - | 632 W/m² | - |
| 1778012459 | 27.22° C | 50% | 1016.8 hPa | 0 mm | - | 578 W/m² | - |
| 1778012156 | 26.67° C | 50% | 1016.9 hPa | 0 mm | - | 600 W/m² | - |
| 1778011854 | 27.22° C | 51% | 1016.9 hPa | 0 mm | - | 613 W/m² | - |
| 1778011551 | 27.22° C | 50% | 1017 hPa | 0 mm | - | 660 W/m² | - |
| 1778011248 | 27.78° C | 47% | 1017.2 hPa | 0 mm | - | 685 W/m² | - |
| 1778010944 | 27.78° C | 47% | 1016.9 hPa | 0 mm | - | 705 W/m² | - |
| 1778010642 | 27.78° C | 49% | 1016.8 hPa | 0 mm | - | 767 W/m² | - |
| 1778010339 | 27.78° C | 50% | 1017 hPa | 0 mm | - | 741 W/m² | - |
| 1778010034 | 27.78° C | 47% | 1017.1 hPa | 0 mm | - | 705 W/m² | - |
| 1778009731 | 27.78° C | 47% | 1017.4 hPa | 0 mm | - | 797 W/m² | - |
| 1778009429 | 28.33° C | 47% | 1017.4 hPa | 0 mm | - | 765 W/m² | - |
| 1778009127 | 28.33° C | 46% | 1017.4 hPa | 0 mm | - | 749 W/m² | - |
| 1778008825 | 28.33° C | 45% | 1017.3 hPa | 0 mm | - | 823 W/m² | - |
| 1778008522 | 27.78° C | 47% | 1017.5 hPa | 0 mm | - | 833 W/m² | - |
| 1778008220 | 27.78° C | 44% | 1017.7 hPa | 0 mm | - | 837 W/m² | - |
| 1778007915 | 28.33° C | 43% | 1017.7 hPa | 0 mm | - | 864 W/m² | - |
| 1778007611 | 28.33° C | 44% | 1017.8 hPa | 0 mm | - | 877 W/m² | - |
* Rain latest hour (hover to see other rain measurements)
** Current wind speed in m/s (hover to see current wind gust speed)